Weather History for Altus, OK

Change the Weather History Date:

Friday, June 21, 2013

  Actual Average (KLTS) Record (KLTS)
Temperature  
Mean Temperature 86 °F -  
Max Temperature 98 °F 89 °F 107 °F (1998)
Min Temperature 75 °F 67 °F 64 °F (2001)
Cooling Degree Days 21    
Growing Degree Days 36 (Base 50)    
Moisture  
Dew Point 63 °F    
Average Humidity 46    
Maximum Humidity 69    
Minimum Humidity 28    
Precipitation  
Precipitation 0.00 in - - ()
Sea Level Pressure  
Sea Level Pressure 29.96 in    
Wind  
Wind Speed 14 mph (South)    
Max Wind Speed 24 mph    
Max Gust Speed 31 mph    
Visibility 10 miles    
Events      
Averages and records for this station are not official NWS values.
T = Trace of Precipitation, MM = Missing Value Source: NWS Daily Summary

Daily Weather History Graph

Daily Weather History Graph

Search for Another Location

Airport:

Trip Planner

Search our weather history database for the weather conditions in past years. The results will help you decide how hot, cold, wet, or windy it might be!

Date:

Astronomy

Jun. 21, 2013 Rise Set
Actual Time 6:24 AM CDT 8:53 PM CDT
Civil Twilight 5:55 AM CDT 9:23 PM CDT
Nautical Twilight 5:18 AM CDT 9:59 PM CDT
Astronomical Twilight 4:38 AM CDT 10:40 PM CDT
Moon 7:08 PM CDT (6/21) 4:38 AM CDT (6/21)
Length of Visible Light 15h 28m
Length of Day
14h 29m
Waxing Gibbous, 95% of the Moon is Illuminated
Jun 21
Waxing Gibbous
Jun 23
Full
Jun 29
Last Quarter
Jul 8
New
Jul 15
First Quarter

Hourly Weather History & Observations

Time (CDT) Temp. Heat Index Dew Point Humidity Pressure Visibility Wind Dir Wind Speed Gust Speed Precip Events Conditions
12:15 AM 84.7 °F 85.6 °F 63.3 °F 48% 29.98 in 10.0 mi South 13.8 mph - N/A   Clear
12:35 AM 81.7 °F 83.3 °F 64.4 °F 56% 29.98 in 10.0 mi South 10.4 mph - N/A   Clear
12:55 AM 81.5 °F 83.1 °F 64.4 °F 56% 29.98 in 10.0 mi South 9.2 mph - N/A   Clear
1:15 AM 81.5 °F 82.8 °F 63.5 °F 54% 29.97 in 10.0 mi South 10.4 mph - N/A   Clear
1:35 AM 81.0 °F 82.1 °F 62.2 °F 53% 29.97 in 10.0 mi South 11.5 mph - N/A   Clear
1:55 AM 80.2 °F 81.4 °F 62.4 °F 54% 29.96 in 10.0 mi SSE 10.4 mph - N/A   Clear
2:15 AM 80.6 °F 82.0 °F 63.7 °F 56% 29.96 in 10.0 mi South 10.4 mph - N/A   Clear
2:35 AM 80.2 °F 81.8 °F 63.5 °F 57% 29.95 in 10.0 mi SSE 10.4 mph - N/A   Clear
2:55 AM 79.7 °F - 64.8 °F 60% 29.94 in 10.0 mi SSE 13.8 mph - N/A   Clear
3:15 AM 79.7 °F - 64.6 °F 60% 29.93 in 10.0 mi SSE 16.1 mph - N/A   Clear
3:35 AM 80.1 °F 81.8 °F 64.8 °F 59% 29.93 in 10.0 mi SSE 13.8 mph - N/A   Clear
3:55 AM 79.7 °F - 64.8 °F 60% 29.93 in 10.0 mi SSE 12.7 mph - N/A   Clear
4:15 AM 79.2 °F - 64.8 °F 61% 29.93 in 10.0 mi SSE 16.1 mph - N/A   Clear
4:35 AM 78.8 °F - 64.8 °F 62% 29.94 in 10.0 mi South 12.7 mph 16.1 mph N/A   Clear
4:55 AM 78.8 °F - 64.6 °F 62% 29.94 in 10.0 mi South 11.5 mph - N/A   Clear
5:15 AM 78.3 °F - 64.6 °F 63% 29.95 in 10.0 mi South 6.9 mph - N/A   Clear
5:35 AM 77.7 °F - 64.6 °F 64% 29.96 in 10.0 mi South 4.6 mph - N/A   Clear
5:55 AM 76.8 °F - 64.9 °F 67% 29.96 in 10.0 mi SE 5.8 mph - N/A   Clear
6:15 AM 75.7 °F - 64.8 °F 69% 29.96 in 10.0 mi SSE 6.9 mph - N/A   Clear
6:35 AM 77.7 °F - 64.4 °F 63% 29.97 in 10.0 mi South 11.5 mph - N/A   Clear
6:55 AM 77.9 °F - 64.4 °F 63% 29.97 in 10.0 mi South 13.8 mph - N/A   Clear
7:15 AM 78.3 °F - 64.6 °F 63% 29.98 in 10.0 mi South 12.7 mph 18.4 mph N/A   Clear
7:35 AM 78.8 °F - 64.8 °F 62% 29.98 in 10.0 mi South 11.5 mph - N/A   Clear
7:55 AM 78.6 °F - 64.6 °F 62% 29.99 in 10.0 mi SSE 11.5 mph 16.1 mph N/A   Clear
8:15 AM 79.9 °F - 65.5 °F 61% 29.99 in 10.0 mi South 16.1 mph 19.6 mph N/A   Clear
8:35 AM 81.7 °F 83.6 °F 65.8 °F 58% 30.00 in 10.0 mi South 13.8 mph 23.0 mph N/A   Clear
8:55 AM 81.7 °F 84.0 °F 66.4 °F 60% 30.01 in 10.0 mi South 16.1 mph - N/A   Clear
9:15 AM 84.0 °F 86.5 °F 66.7 °F 56% 30.02 in 10.0 mi South 20.7 mph - N/A   Clear
9:35 AM 86.0 °F 88.8 °F 67.1 °F 53% 30.02 in 10.0 mi SSW 19.6 mph - N/A   Clear
9:55 AM 86.9 °F 89.6 °F 66.7 °F 51% 30.02 in 10.0 mi SSW 19.6 mph 24.2 mph N/A   Clear
10:15 AM 88.0 °F 90.7 °F 66.6 °F 49% 30.02 in 10.0 mi SW 19.6 mph - N/A   Clear
10:35 AM 88.7 °F 91.1 °F 66.2 °F 47% 30.03 in 10.0 mi SSW 23.0 mph 27.6 mph N/A   Clear
10:55 AM 89.4 °F 91.9 °F 66.2 °F 46% 30.03 in 10.0 mi SSW 20.7 mph 24.2 mph N/A   Clear
11:15 AM 88.5 °F 90.8 °F 66.0 °F 47% 30.04 in 10.0 mi SSW 20.7 mph 25.3 mph N/A   Clear
11:35 AM 87.4 °F 90.1 °F 66.7 °F 50% 30.04 in 10.0 mi SSW 16.1 mph - N/A   Clear
11:55 AM 90.5 °F 93.3 °F 66.6 °F 45% 30.03 in 10.0 mi SSW 20.7 mph 27.6 mph N/A   Clear
12:15 PM 91.4 °F 94.0 °F 66.0 °F 43% 30.03 in 10.0 mi SSW 20.7 mph 27.6 mph N/A   Clear
12:35 PM 91.8 °F 95.1 °F 66.7 °F 44% 30.02 in 10.0 mi SW 17.3 mph 24.2 mph N/A   Clear
12:55 PM 93.0 °F 95.9 °F 66.4 °F 41% 30.02 in 10.0 mi South 18.4 mph 26.5 mph N/A   Clear
1:15 PM 93.9 °F 96.5 °F 65.8 °F 39% 30.01 in 10.0 mi South 19.6 mph 26.5 mph N/A   Clear
1:35 PM 93.7 °F 95.8 °F 64.9 °F 38% 30.01 in 10.0 mi South 20.7 mph 25.3 mph N/A   Clear
1:55 PM 94.5 °F 96.5 °F 64.6 °F 37% 30.00 in 10.0 mi South 18.4 mph 26.5 mph N/A   Clear
2:15 PM 96.1 °F 97.8 °F 63.3 °F 34% 29.99 in 10.0 mi SSW 15.0 mph 29.9 mph N/A   Clear
2:35 PM 94.8 °F 96.2 °F 63.1 °F 35% 29.99 in 10.0 mi SSW 21.9 mph 27.6 mph N/A   Clear
2:55 PM 96.1 °F 97.8 °F 63.1 °F 34% 29.98 in 10.0 mi South 18.4 mph 25.3 mph N/A   Clear
3:15 PM 96.4 °F 97.4 °F 62.1 °F 32% 29.97 in 10.0 mi South 16.1 mph 31.1 mph N/A   Clear
3:35 PM 97.2 °F 97.2 °F 60.3 °F 29% 29.97 in 10.0 mi South 24.2 mph 31.1 mph N/A   Clear
3:55 PM 96.6 °F 97.3 °F 61.0 °F 31% 29.96 in 10.0 mi South 17.3 mph 31.1 mph N/A   Clear
4:15 PM 97.5 °F 98.7 °F 61.9 °F 31% 29.95 in 10.0 mi SSE 20.7 mph 26.5 mph N/A   Clear
4:35 PM 97.9 °F 98.8 °F 61.3 °F 30% 29.94 in 10.0 mi South 16.1 mph 28.8 mph N/A   Clear
4:55 PM 95.5 °F 96.0 °F 61.2 °F 32% 29.94 in 10.0 mi South 20.7 mph 28.8 mph N/A   Clear
5:15 PM 95.4 °F 95.3 °F 60.4 °F 31% 29.93 in 10.0 mi South 20.7 mph 28.8 mph N/A   Clear
5:35 PM 97.0 °F 96.9 °F 59.7 °F 29% 29.92 in 10.0 mi South 21.9 mph 28.8 mph N/A   Clear
5:55 PM 97.2 °F 96.8 °F 59.4 °F 28% 29.92 in 10.0 mi South 20.7 mph 31.1 mph N/A   Clear
6:15 PM 97.0 °F 96.9 °F 59.5 °F 29% 29.91 in 10.0 mi South 19.6 mph 29.9 mph N/A   Clear
6:35 PM 96.3 °F 95.5 °F 58.1 °F 28% 29.91 in 10.0 mi South 24.2 mph 28.8 mph N/A   Clear
6:55 PM 95.5 °F 94.8 °F 58.6 °F 29% 29.91 in 10.0 mi South 19.6 mph 27.6 mph N/A   Clear
7:15 PM 95.9 °F 95.3 °F 59.0 °F 29% 29.92 in 10.0 mi South 20.7 mph 26.5 mph N/A   Clear
7:35 PM 95.0 °F 94.4 °F 59.0 °F 30% 29.91 in 10.0 mi South 20.7 mph - N/A   Clear
7:55 PM 94.3 °F 93.7 °F 59.2 °F 31% 29.91 in 10.0 mi South 21.9 mph 29.9 mph N/A   Clear
8:15 PM 93.4 °F 92.2 °F 57.9 °F 30% 29.91 in 10.0 mi South 18.4 mph 23.0 mph N/A   Clear
8:35 PM 92.3 °F 91.3 °F 58.6 °F 32% 29.91 in 10.0 mi South 17.3 mph - N/A   Clear
8:55 PM 91.4 °F 90.7 °F 59.0 °F 34% 29.92 in 10.0 mi SSE 16.1 mph - N/A   Clear
9:15 PM 90.0 °F 89.1 °F 59.2 °F 35% 29.92 in 10.0 mi SSE 13.8 mph - N/A   Clear
9:35 PM 88.5 °F 88.1 °F 59.9 °F 38% 29.92 in 10.0 mi SSE 11.5 mph - N/A   Clear
9:55 PM 87.3 °F 87.0 °F 59.9 °F 40% 29.92 in 10.0 mi SSE 12.7 mph - N/A   Clear
10:15 PM 86.9 °F 86.7 °F 60.4 °F 41% 29.92 in 10.0 mi SSE 15.0 mph - N/A   Clear
10:35 PM 86.4 °F 86.1 °F 60.3 °F 41% 29.93 in 10.0 mi SSE 15.0 mph - N/A   Clear
10:55 PM 85.5 °F 85.4 °F 60.4 °F 43% 29.93 in 10.0 mi SE 13.8 mph - N/A   Clear
11:15 PM 84.9 °F 85.0 °F 61.0 °F 44% 29.93 in 10.0 mi SSE 15.0 mph - N/A   Clear
11:35 PM 84.2 °F 84.8 °F 61.9 °F 47% 29.93 in 10.0 mi SSE 17.3 mph 20.7 mph N/A   Clear
11:55 PM 83.5 °F 84.3 °F 62.2 °F 49% 29.94 in 10.0 mi SSE 13.8 mph - N/A   Clear